• In Deutschland
  • Länderverzeichnis
  • Für 7 Tage
  • Wassertemperatur
  • Satellitenkarten
  • Wetterkarte
  • Widgets
  • user-avatar
    Anmelden

    Stündliche Wetter Valledupar

    Heute, 20 November, Montag

    Zeit Temperatur Niederschläge Wind Luftdruck Luftfeuchtigkeit
    00:00 +24°C° 0,5 mm 0 m/S 742 mmHg 84%
    01:00 +24°C° 0 mm 0 m/S 742 mmHg 84%
    02:00 +24°C° 0,5 mm 0 m/S 742 mmHg 84%
    03:00 +24°C° 0,5 mm 0 m/S 742 mmHg 84%
    04:00 +24°C° 0,5 mm 0 m/S 742 mmHg 83%
    05:00 +25°C° 0,6 mm 0 m/S 742 mmHg 81%
    06:00 +25°C° 0,6 mm 0 m/S 743 mmHg 79%
    07:00 +26°C° 0,6 mm 0 m/S 743 mmHg 77%
    08:00 +29°C° 0,6 mm 1 m/S 743 mmHg 71%
    09:00 +31°C° 0,6 mm 1 m/S 743 mmHg 66%
    10:00 +33°C° 0,6 mm 1 m/S 744 mmHg 60%
    11:00 +33°C° 0,7 mm 1 m/S 743 mmHg 60%
    12:00 +33°C° 0,7 mm 1 m/S 743 mmHg 59%
    13:00 +33°C° 0,7 mm 1 m/S 742 mmHg 59%
    14:00 +33°C° 0,9 mm 1 m/S 741 mmHg 63%
    15:00 +32°C° 0,9 mm 1 m/S 741 mmHg 67%
    16:00 +31°C° 0,9 mm 1 m/S 741 mmHg 71%
    17:00 +30°C° 0,8 mm 1 m/S 741 mmHg 75%
    18:00 +29°C° 0,8 mm 1 m/S 741 mmHg 80%
    19:00 +28°C° 0,8 mm 1 m/S 741 mmHg 85%
    20:00 +28°C° 0,5 mm 1 m/S 742 mmHg 85%
    21:00 +27°C° 0,5 mm 1 m/S 742 mmHg 86%
    22:00 +27°C° 0,5 mm 1 m/S 743 mmHg 86%
    23:00 +27°C° 0,3 mm 1 m/S 742 mmHg 87%

    Morgen, 21 November, Dienstag

    Zeit Temperatur Niederschläge Wind Luftdruck Luftfeuchtigkeit
    00:00 +27°C° 0,3 mm 1 m/S 742 mmHg 88%
    01:00 +27°C° 0,3 mm 1 m/S 742 mmHg 89%
    02:00 +26°C° 0,1 mm 1 m/S 742 mmHg 89%
    03:00 +26°C° 0,1 mm 1 m/S 741 mmHg 89%
    04:00 +26°C° 0,1 mm 1 m/S 741 mmHg 89%
    05:00 +25°C° 0 mm 0 m/S 742 mmHg 87%
    06:00 +25°C° 0 mm 0 m/S 742 mmHg 85%
    07:00 +26°C° 0 mm 0 m/S 742 mmHg 83%
    08:00 +30°C° 0 mm 1 m/S 743 mmHg 74%
    09:00 +32°C° 0 mm 1 m/S 743 mmHg 65%
    10:00 +34°C° 0 mm 1 m/S 743 mmHg 56%
    11:00 +34°C° 0,1 mm 1 m/S 743 mmHg 56%
    12:00 +34°C° 0,1 mm 1 m/S 742 mmHg 55%
    13:00 +34°C° 0,1 mm 1 m/S 741 mmHg 55%
    14:00 +33°C° 0,4 mm 1 m/S 741 mmHg 59%
    15:00 +33°C° 0,4 mm 1 m/S 741 mmHg 63%
    16:00 +32°C° 0,4 mm 1 m/S 740 mmHg 68%
    17:00 +30°C° 0,4 mm 1 m/S 741 mmHg 73%
    18:00 +29°C° 0,4 mm 1 m/S 741 mmHg 79%
    19:00 +27°C° 0,4 mm 1 m/S 742 mmHg 85%
    20:00 +27°C° 0 mm 1 m/S 742 mmHg 85%
    21:00 +27°C° 0 mm 1 m/S 743 mmHg 85%
    22:00 +27°C° 0 mm 1 m/S 743 mmHg 85%
    23:00 +27°C° 0 mm 1 m/S 743 mmHg 86%

    übermorgen, 22 November, Mittwoch

    Zeit Temperatur Niederschläge Wind Luftdruck Luftfeuchtigkeit
    00:00 +27°C° 0 mm 1 m/S 743 mmHg 86%
    01:00 +24°C° 0 mm 0 m/S 742 mmHg 86%
    02:00 +24°C° 0 mm 0 m/S 742 mmHg 87%
    03:00 +24°C° 0 mm 0 m/S 742 mmHg 87%
    04:00 +24°C° 0 mm 0 m/S 742 mmHg 87%
    05:00 +25°C° 0 mm 0 m/S 742 mmHg 85%
    06:00 +25°C° 0 mm 0 m/S 743 mmHg 82%
    07:00 +26°C° 0 mm 0 m/S 743 mmHg 79%
    08:00 +30°C° 0 mm 1 m/S 744 mmHg 71%
    09:00 +32°C° 0 mm 1 m/S 744 mmHg 62%
    10:00 +34°C° 0 mm 1 m/S 744 mmHg 54%
    11:00 +34°C° 0,1 mm 1 m/S 744 mmHg 53%
    12:00 +34°C° 0,1 mm 1 m/S 743 mmHg 53%
    13:00 +34°C° 0,1 mm 1 m/S 742 mmHg 52%
    14:00 +34°C° 0,4 mm 1 m/S 741 mmHg 56%
    15:00 +33°C° 0,4 mm 1 m/S 741 mmHg 60%
    16:00 +32°C° 0,4 mm 1 m/S 740 mmHg 64%
    17:00 +30°C° 0,2 mm 1 m/S 741 mmHg 70%
    18:00 +29°C° 0,2 mm 1 m/S 741 mmHg 76%
    19:00 +28°C° 0,2 mm 1 m/S 742 mmHg 83%
    20:00 +27°C° 0 mm 1 m/S 742 mmHg 83%
    21:00 +27°C° 0 mm 1 m/S 743 mmHg 84%
    22:00 +27°C° 0 mm 1 m/S 743 mmHg 84%
    23:00 +27°C° 0 mm 1 m/S 743 mmHg 85%

    23 November, Donnerstag

    Zeit Temperatur Niederschläge Wind Luftdruck Luftfeuchtigkeit
    00:00 +27°C° 0 mm 1 m/S 742 mmHg 85%
    01:00 +26°C° 0 mm 1 m/S 742 mmHg 86%
    02:00 +26°C° 0 mm 1 m/S 742 mmHg 86%
    03:00 +24°C° 0 mm 0 m/S 742 mmHg 87%
    04:00 +24°C° 0 mm 0 m/S 741 mmHg 87%
    05:00 +25°C° 0 mm 0 m/S 742 mmHg 84%
    06:00 +25°C° 0 mm 0 m/S 742 mmHg 82%
    07:00 +26°C° 0 mm 0 m/S 743 mmHg 79%
    08:00 +30°C° 0 mm 1 m/S 743 mmHg 71%
    09:00 +32°C° 0 mm 1 m/S 743 mmHg 63%
    10:00 +34°C° 0 mm 1 m/S 744 mmHg 55%
    11:00 +34°C° 0,4 mm 1 m/S 743 mmHg 55%
    12:00 +34°C° 0,4 mm 1 m/S 742 mmHg 55%
    13:00 +34°C° 0,4 mm 1 m/S 741 mmHg 55%
    14:00 +33°C° 0,9 mm 1 m/S 741 mmHg 60%
    15:00 +32°C° 0,9 mm 1 m/S 740 mmHg 65%
    16:00 +31°C° 0,9 mm 1 m/S 740 mmHg 70%
    17:00 +30°C° 0,7 mm 1 m/S 740 mmHg 74%
    18:00 +29°C° 0,7 mm 1 m/S 741 mmHg 77%
    19:00 +28°C° 0,7 mm 1 m/S 742 mmHg 81%
    20:00 +28°C° 0,3 mm 1 m/S 742 mmHg 81%
    21:00 +27°C° 0,3 mm 1 m/S 743 mmHg 80%
    22:00 +27°C° 0,3 mm 1 m/S 743 mmHg 80%
    23:00 +25°C° 0,4 mm 0 m/S 743 mmHg 81%

    24 November, Freitag

    Zeit Temperatur Niederschläge Wind Luftdruck Luftfeuchtigkeit
    00:00 +25°C° 0,4 mm 0 m/S 742 mmHg 81%
    01:00 +25°C° 0,4 mm 0 m/S 742 mmHg 81%
    02:00 +25°C° 0,6 mm 0 m/S 742 mmHg 82%
    03:00 +24°C° 0,6 mm 0 m/S 742 mmHg 82%
    04:00 +24°C° 0,6 mm 0 m/S 742 mmHg 83%
    05:00 +25°C° 0,3 mm 0 m/S 742 mmHg 82%
    06:00 +25°C° 0,3 mm 0 m/S 743 mmHg 82%
    07:00 +25°C° 0,3 mm 0 m/S 743 mmHg 81%
    08:00 +27°C° 0,1 mm 0 m/S 744 mmHg 75%
    09:00 +30°C° 0,1 mm 1 m/S 744 mmHg 69%
    10:00 +32°C° 0,1 mm 1 m/S 744 mmHg 63%
    11:00 +32°C° 0,3 mm 1 m/S 743 mmHg 62%
    12:00 +33°C° 0,3 mm 1 m/S 743 mmHg 61%
    13:00 +33°C° 0,3 mm 1 m/S 742 mmHg 59%
    14:00 +32°C° 0,5 mm 1 m/S 742 mmHg 63%
    15:00 +31°C° 0,5 mm 1 m/S 741 mmHg 66%
    16:00 +31°C° 0,5 mm 1 m/S 741 mmHg 69%
    17:00 +30°C° 0,1 mm 1 m/S 741 mmHg 74%
    18:00 +29°C° 0,1 mm 1 m/S 742 mmHg 78%
    19:00 +28°C° 0,1 mm 1 m/S 743 mmHg 83%
    20:00 +27°C° 0 mm 1 m/S 743 mmHg 83%
    21:00 +27°C° 0 mm 1 m/S 743 mmHg 84%
    22:00 +27°C° 0 mm 1 m/S 744 mmHg 85%
    23:00 +27°C° 0 mm 1 m/S 743 mmHg 85%

    25 November, Samstag

    Zeit Temperatur Niederschläge Wind Luftdruck Luftfeuchtigkeit
    00:00 +27°C° 0 mm 1 m/S 743 mmHg 86%
    01:00 +27°C° 0 mm 1 m/S 743 mmHg 87%
    02:00 +27°C° 0 mm 1 m/S 742 mmHg 87%
    03:00 +26°C° 0 mm 1 m/S 742 mmHg 88%
    04:00 +26°C° 0 mm 1 m/S 742 mmHg 89%
    05:00 +27°C° 0 mm 1 m/S 743 mmHg 86%
    06:00 +27°C° 0 mm 1 m/S 743 mmHg 84%
    07:00 +28°C° 0 mm 1 m/S 744 mmHg 82%
    08:00 +30°C° 0 mm 1 m/S 744 mmHg 74%
    09:00 +32°C° 0 mm 1 m/S 744 mmHg 66%
    10:00 +33°C° 0 mm 1 m/S 744 mmHg 58%
    11:00 +34°C° 0,1 mm 1 m/S 743 mmHg 57%
    12:00 +35°C° 0,1 mm 2 m/S 743 mmHg 55%
    13:00 +36°C° 0,1 mm 2 m/S 742 mmHg 54%
    14:00 +35°C° 0,3 mm 2 m/S 741 mmHg 58%
    15:00 +34°C° 0,3 mm 2 m/S 741 mmHg 61%
    16:00 +32°C° 0,3 mm 2 m/S 741 mmHg 65%
    17:00 +31°C° 0,3 mm 1 m/S 741 mmHg 71%
    18:00 +29°C° 0,3 mm 1 m/S 742 mmHg 77%
    19:00 +28°C° 0,3 mm 1 m/S 742 mmHg 83%
    20:00 +28°C° 0 mm 1 m/S 743 mmHg 84%
    21:00 +27°C° 0 mm 1 m/S 743 mmHg 85%
    22:00 +27°C° 0 mm 1 m/S 743 mmHg 85%
    23:00 +27°C° 0 mm 1 m/S 743 mmHg 85%
    Mehr zeigen